EW3176 Weather Reports


Display with metric or nautical units.
time (UTC)temp
F
wind
direction
speed
MPH
gust
MPH
rain 1hr
in
rain 24hr
in
rain mn
in
humidity
%
barometer
mb
20210418092844 54 298 0.0 1.0 0.00 0.00 0.00 72 1014.0
20210418092049 55 0 0.0 1.0 0.00 0.00 0.00 72 1014.0
20210418091029 55 298 0.0 1.0 0.00 0.00 0.00 71 1014.0
20210418090129 55 298 0.0 1.0 0.00 0.00 0.00 71 1013.9
20210418085551 55 0 0.0 0.0 0.00 0.00 0.00 73 1013.9
20210418084331 55 0 0.0 0.0 0.00 0.00 0.00 73 1013.9
20210418083431 55 298 0.0 1.0 0.00 0.00 0.00 73 1013.9
20210418082757 55 0 0.0 0.0 0.00 0.00 0.00 75 1013.8
20210418081629 55 298 0.0 1.0 0.00 0.00 0.00 76 1013.9
20210418080730 55 297 0.0 1.0 0.00 0.00 0.00 77 1013.9
20210418080127 55 0 0.0 0.0 0.00 0.00 0.00 76 1014.0
20210418075120 55 0 0.0 0.0 0.00 0.00 0.00 77 1014.0
20210418074030 55 0 0.0 0.0 0.00 0.00 0.00 77 1014.0
20210418073140 55 0 0.0 0.0 0.00 0.00 0.00 76 1013.9
20210418072400 55 0 0.0 0.0 0.00 0.00 0.00 74 1013.8
20210418071330 55 0 0.0 0.0 0.00 0.00 0.00 74 1013.5
20210418070430 55 0 0.0 0.0 0.00 0.00 0.00 74 1013.5
20210418065754 55 0 0.0 0.0 0.00 0.00 0.00 74 1013.4
20210418064630 55 0 0.0 0.0 0.00 0.00 0.00 76 1013.2
20210418063731 55 0 0.0 0.0 0.00 0.00 0.00 73 1013.2
20210418062836 55 0 0.0 0.0 0.00 0.00 0.00 76 1013.2
20210418062020 55 0 0.0 0.0 0.00 0.00 0.00 77 1013.1
20210418061032 55 0 0.0 0.0 0.00 0.00 0.00 76 1013.2
20210418060229 55 0 0.0 0.0 0.00 0.00 0.00 78 1013.2
20210418055726 55 0 0.0 0.0 0.00 0.00 0.00 78 1013.2
20210418054331 55 0 0.0 0.0 0.00 0.00 0.00 77 1013.2
20210418053430 55 0 0.0 0.0 0.00 0.00 0.00 77 1013.3
20210418052856 55 0 0.0 0.0 0.00 0.00 0.00 76 1013.2
20210418051631 55 0 0.0 0.0 0.00 0.00 0.00 75 1013.4
20210418050736 56 0 0.0 0.0 0.00 0.00 0.00 75 1013.4
20210418045930 56 0 0.0 0.0 0.00 0.00 0.00 74 1013.4
20210418045059 56 0 0.0 0.0 0.00 0.00 0.00 75 1013.3
20210418044029 56 0 0.0 0.0 0.00 0.00 0.00 75 1013.1
20210418043131 56 0 0.0 0.0 0.00 0.00 0.00 75 1013.1
20210418042753 56 0 0.0 0.0 0.00 0.00 0.00 76 1013.1
20210418041331 56 0 0.0 0.0 0.00 0.00 0.00 76 1013.1
20210418040431 56 0 0.0 0.0 0.00 0.00 0.00 76 1013.2
20210418035819 56 0 0.0 0.0 0.00 0.00 0.00 75 1013.3
20210418034633 56 0 0.0 0.0 0.00 0.00 0.00 75 1013.3
20210418033733 56 0 0.0 0.0 0.00 0.00 0.00 72 1013.4
20210418033020 56 0 0.0 0.0 0.00 0.00 0.00 72 1013.3
20210418032253 57 0 0.0 0.0 0.00 0.00 0.00 71 1013.3
20210418031038 57 0 0.0 0.0 0.00 0.00 0.00 72 1013.4
20210418030258 57 0 0.0 0.0 0.00 0.00 0.00 70 1013.5
20210418025705 57 0 0.0 0.0 0.00 0.00 0.00 69 1013.5
20210418024336 58 0 0.0 0.0 0.00 0.00 0.00 69 1013.4
20210418023431 58 0 0.0 0.0 0.00 0.00 0.00 67 1013.4
20210418022757 59 0 0.0 0.0 0.00 0.00 0.00 65 1013.4
20210418021629 59 0 0.0 0.0 0.00 0.00 0.00 63 1013.5
20210418020729 59 0 0.0 0.0 0.00 0.00 0.00 63 1013.4
20210418015941 60 0 0.0 0.0 0.00 0.00 0.00 62 1013.6
20210418015136 60 0 0.0 0.0 0.00 0.00 0.00 62 1013.7
20210418014030 60 0 0.0 0.0 0.00 0.00 0.00 61 1013.5
20210418013304 60 0 0.0 0.0 0.00 0.00 0.00 61 1013.4
20210418012855 60 0 0.0 0.0 0.00 0.00 0.00 62 1013.3
20210418011330 60 0 0.0 0.0 0.00 0.00 0.00 61 1013.2
20210418010430 60 0 0.0 0.0 0.00 0.00 0.00 61 1013.2
20210418005824 60 0 0.0 0.0 0.00 0.00 0.00 60 1013.1
20210418004631 60 0 0.0 0.0 0.00 0.00 0.00 59 1013.1
20210418003736 60 0 0.0 0.0 0.00 0.00 0.00 59 1013.0
20210418002931 60 0 0.0 0.0 0.00 0.00 0.00 58 1013.1
20210418002045 61 0 0.0 0.0 0.00 0.00 0.00 57 1012.9
20210418001033 62 0 0.0 0.0 0.00 0.00 0.00 55 1012.7
20210418000129 62 0 0.0 0.0 0.00 0.00 0.00 53 1012.6
20210417235717 63 0 0.0 0.0 0.00 0.00 0.00 53 1012.5
20210417234330 63 0 0.0 0.0 0.00 0.00 0.00 52 1012.3
20210417233430 63 0 0.0 0.0 0.00 0.00 0.00 53 1012.3
20210417232836 63 0 0.0 0.0 0.00 0.00 0.00 51 1012.3
20210417231631 64 0 0.0 0.0 0.00 0.00 0.00 52 1012.2
20210417230734 64 0 0.0 0.0 0.00 0.00 0.00 51 1012.3
20210417225954 64 0 0.0 0.0 0.00 0.00 0.00 51 1012.2
20210417224952 64 309 0.0 1.0 0.00 0.00 0.00 49 1012.1
20210417224052 65 342 0.0 1.0 0.00 0.00 0.00 48 1012.1
20210417223147 65 42 0.0 2.0 0.00 0.00 0.00 48 1012.1
20210417222835 65 88 0.0 3.0 0.00 0.00 0.00 48 1012.0
20210417221330 65 64 0.0 3.0 0.00 0.00 0.00 47 1012.2
20210417220431 65 112 0.0 4.0 0.00 0.00 0.00 47 1012.2
20210417215710 65 247 0.0 3.0 0.00 0.00 0.00 48 1012.1
20210417214629 65 305 1.0 3.0 0.00 0.00 0.00 47 1012.1
20210417213734 66 341 0.0 3.0 0.00 0.00 0.00 45 1011.9
20210417212850 66 232 0.0 2.0 0.00 0.00 0.00 47 1011.9
20210417211955 65 264 0.0 3.0 0.00 0.00 0.00 46 1011.8
20210417211041 65 312 1.0 3.0 0.00 0.00 0.00 46 1012.0
20210417210132 66 326 1.0 4.0 0.00 0.00 0.00 46 1011.9
20210417205654 66 16 0.0 3.0 0.00 0.00 0.00 47 1011.9
20210417204332 65 299 1.0 8.0 0.00 0.00 0.00 47 1012.0
20210417203431 66 197 1.0 4.0 0.00 0.00 0.00 47 1011.9
20210417202819 66 304 0.0 3.0 0.00 0.00 0.00 47 1012.0
20210417201634 66 292 1.0 3.0 0.00 0.00 0.00 47 1012.2
20210417200732 66 79 1.0 3.0 0.00 0.00 0.00 46 1012.2
20210417195830 66 358 1.0 4.0 0.00 0.00 0.00 44 1012.3
20210417195047 66 89 1.0 7.0 0.00 0.00 0.00 46 1012.3
20210417194029 66 102 1.0 8.0 0.00 0.00 0.00 44 1012.3
20210417193129 66 91 2.0 8.0 0.00 0.00 0.00 42 1012.5
20210417192553 66 87 2.0 8.0 0.00 0.00 0.00 43 1012.6
20210417191329 65 87 1.0 5.0 0.00 0.00 0.00 45 1012.7
20210417190429 64 72 1.0 4.0 0.00 0.00 0.00 46 1012.8
20210417185750 64 204 0.0 3.0 0.00 0.00 0.00 47 1013.1
20210417184631 64 234 0.0 4.0 0.00 0.00 0.00 48 1013.1
20210417183729 63 76 0.0 2.0 0.00 0.00 0.00 49 1013.1
20210417182945 63 101 0.0 2.0 0.00 0.00 0.00 46 1013.1
20210417182158 64 185 0.0 1.0 0.00 0.00 0.00 45 1013.3
20210417181034 64 280 0.0 3.0 0.00 0.00 0.00 46 1013.3
20210417180132 64 312 0.0 2.0 0.00 0.00 0.00 45 1013.2
20210417175620 64 353 0.0 2.0 0.00 0.00 0.00 43 1013.3
20210417174330 64 293 0.0 2.0 0.00 0.00 0.00 44 1013.6
20210417173434 64 294 0.0 2.0 0.00 0.00 0.00 46 1013.6
20210417172853 65 151 0.0 2.0 0.00 0.00 0.00 43 1013.6
20210417171630 64 89 0.0 2.0 0.00 0.00 0.00 47 1013.6
20210417170730 64 84 1.0 3.0 0.00 0.00 0.00 45 1013.8
20210417165854 63 304 1.0 3.0 0.00 0.00 0.00 43 1013.8
20210417165122 63 82 1.0 4.0 0.00 0.00 0.00 42 1013.9
20210417164042 64 78 1.0 4.0 0.00 0.00 0.00 46 1013.9
20210417163134 63 235 0.0 2.0 0.00 0.00 0.00 46 1014.1
20210417162524 62 228 1.0 3.0 0.00 0.00 0.00 46 1014.2
20210417161329 62 110 1.0 3.0 0.00 0.00 0.00 46 1014.2
20210417160429 62 77 0.0 3.0 0.00 0.00 0.00 48 1014.3
20210417155800 61 251 0.0 1.0 0.00 0.00 0.00 49 1014.5
20210417154631 61 119 1.0 3.0 0.00 0.00 0.00 50 1014.5
20210417153737 60 308 1.0 2.0 0.00 0.00 0.00 48 1014.6
20210417152831 61 314 1.0 2.0 0.00 0.00 0.00 47 1014.7
20210417152105 61 346 0.0 2.0 0.00 0.00 0.00 46 1014.8
20210417151032 61 319 0.0 2.0 0.00 0.00 0.00 47 1014.8
20210417150131 60 53 0.0 2.0 0.00 0.00 0.00 49 1014.9
20210417145724 60 321 0.0 2.0 0.00 0.00 0.00 51 1015.0
20210417144330 60 99 0.0 1.0 0.00 0.00 0.00 52 1014.8
20210417143434 60 102 0.0 2.0 0.00 0.00 0.00 51 1014.7
20210417142845 60 103 0.0 3.0 0.00 0.00 0.00 49 1014.7
20210417141636 60 78 0.0 2.0 0.00 0.00 0.00 47 1014.8
20210417140732 59 59 0.0 1.0 0.00 0.00 0.00 51 1014.8
20210417140027 59 106 0.0 2.0 0.00 0.00 0.00 54 1014.7
20210417135148 58 94 0.0 2.0 0.00 0.00 0.00 52 1014.9
20210417134035 58 78 0.0 3.0 0.00 0.00 0.00 57 1014.9
20210417133134 58 103 0.0 1.0 0.00 0.00 0.00 56 1015.1
20210417132659 56 53 0.0 1.0 0.00 0.00 0.00 63 1014.9
20210417131329 56 53 0.0 1.0 0.00 0.00 0.00 62 1014.9
20210417130434 55 60 0.0 1.0 0.00 0.00 0.00 65 1014.7
20210417125853 55 53 0.0 1.0 0.00 0.00 0.00 66 1014.7
20210417124629 53 351 0.0 1.0 0.00 0.00 0.00 68 1014.6
20210417123732 52 26 0.0 1.0 0.00 0.00 0.00 70 1014.5
20210417122843 51 20 0.0 1.0 0.00 0.00 0.00 71 1014.4
20210417122245 51 15 0.0 1.0 0.00 0.00 0.00 74 1014.3
20210417121030 50 0 0.0 0.0 0.00 0.00 0.00 80 1014.3
20210417120133 48 0 0.0 0.0 0.00 0.00 0.00 83 1014.4
20210417115906 47 0 0.0 0.0 0.00 0.00 0.00 83 1014.3
20210417114339 46 0 0.0 0.0 0.00 0.00 0.00 86 1014.4
20210417113431 46 0 0.0 0.0 0.00 0.00 0.00 87 1014.3
20210417112917 45 0 0.0 0.0 0.00 0.00 0.00 87 1014.3
20210417111632 44 0 0.0 0.0 0.00 0.00 0.00 88 1014.4
20210417110729 44 0 0.0 0.0 0.00 0.00 0.00 87 1014.3
20210417105953 44 0 0.0 0.0 0.00 0.00 0.00 87 1014.3
20210417105118 44 0 0.0 0.0 0.00 0.00 0.00 87 1014.3
20210417104042 44 0 0.0 0.0 0.00 0.00 0.00 87 1014.2
20210417103254 44 0 0.0 0.0 0.00 0.00 0.00 87 1014.1
20210417102620 44 0 0.0 0.0 0.00 0.00 0.00 87 1013.9
20210417101331 44 0 0.0 0.0 0.00 0.00 0.00 86 1014.0
20210417100429 45 0 0.0 0.0 0.00 0.00 0.00 86 1013.9
20210417095722 45 0 0.0 0.0 0.00 0.00 0.00 85 1013.6
20210417094652 45 0 0.0 0.0 0.00 0.00 0.00 85 1013.6
20210417093751 45 0 0.0 0.0 0.00 0.00 0.00 85 1013.7